sat.trackr.live / text

‹ back to catalog

ICEYE-X61

NORAD 66754 · 2025-276CS

PAYLOAD ACTIVE UNKNOWN

§ Identity

Operator
Country
FIN
Launch date
2025-11-28
Launch site
AFWTR
Launch vehicle
Mass (kg)
RCS (m²)

External: N2YO · Heavens-Above · Gunter

§ Orbital elements

Epoch: 2026-09-20T10:21:10.334304Z

Period
94.80 min
Inclination
97.4122°
Eccentricity
0.0003654
Mean motion
15.19035148 rev/d
Perigee alt
506.2 km
Apogee alt
511.3 km
Semi-major
6,886.9 km
B*
1.0043e-4
RAAN
335.1366°
Arg perigee
30.1990°
Mean anomaly
329.9455°
Rev number
4,487

§ Raw data

ICEYE-X611 66754U 25276CS  26263.43136961  .00002036  00000+0  10043-3 0  99932 66754  97.4122 335.1366 0003654  30.1990 329.9455 15.19035148 44879

JSON: /api/v1/satellites/66754 · /tle

For live sub-satellite position, see the globe view (requires WebGL).

§ Visibility from observer

Set your observer location to see the next 7 days of passes ≥ 10°. The values pass through the URL so the page stays shareable.

No JS? Fill the form by hand. The geolocation button needs JavaScript.

§ Radio — SatNOGS DB

ModeDescriptionDownlinkUplink
FM S-band telemetry 2.240 GHz
UNKNOWN S-band telemetry 2.276 GHz

2 transmitters · refreshed weekly from db.satnogs.org